STARLINK-1063, 44768

Orbit data source: Space-Track

STARLINK-1063, 44768 is a payload satellite owned by SpaceX/Seattle (US) in LEO that was launched on Mon, 11 Nov 2019 UTC via an FALCON 9 launch vehicle from the Air Force Eastern Test Range (AFETR). Payload-class satellites include a variety of spacecraft equipped with specific instruments for various scientific and technological missions. These include communications satellites like Starlink; space stations such as the ISS; scientific satellites like the Hubble; Earth observation satellites from companies like Planet Labs, Umbra, and HawkEye 360; GPS; miniature CubeSats for education and research; and military/defense satellites.

Loading next visibility...
Identifier
44768, 2019-074BH
Orbit
LEO
Country
Flag of USUS
Related business
Manufacturer
SpaceX/Seattle
Mission
Operational Commercial Communications
Bus & Motor
STARLINK, Unknown motor
Mass
260 kg wet, ~248 kg dry
Launch date (UTC)
2019-11-11 (6 years ago)
Launch vehicle
FALCON 9
Launch site
Air Force Eastern Test Range (AFETR)
Object type
Payload
Rocket body
Debris
Shape & HBR
Box + 1 Pan, 4.4 m
Radar Cross Section
13.562 m², Large (>1 m²)

Expand to show TLE details & history
Last TLE update: 5 hours ago

TLE from 5 hours ago
0 STARLINK-1063
1 44768U 19074BH  25261.25459571  .00001486  00000-0  11864-3 0  9996
2 44768  53.0533 280.7116 0001496  90.8339 269.2821 15.06386897322210
Epoch: 2025-09-18T06:06Z
TLE epoch observation values (Epoch: 2025-09-18T06:06:37.069Z)
Latitude
-0.00004°
Longitude
-168.36171°
Altitude
548.144 km
Speed
7.589 km/s
True Right ascension
18h 42m 50s
True Declination
0° 00' 00"
Sunlit
Object was in daylight at epoch
Visualization orbit readout
Latitude
Unknown
Longitude
Unknown
Altitude
Unknown
Speed
Unknown
Apparent Right ascension
Unknown
Apparent Declination
Unknown
Sunlit
N/A
Visualization observer readout
Local Sidereal Time
04:18:35
Azimuth
Unknown
Elevation
Unknown
Doppler factor
Unknown
Orbital elements
Apogee altitude
548.559 km
Perigee altitude
546.487 km
Semi-major axis
6,925.66 km
Eccentricity
0.00015
Inclination
53.0533°
RAAN
280.7116°
Arg. of periapsis
90.8339°
True anomaly
269.26496°
Mean anomaly
269.2821°
Eccentric anomaly
269.27353°
Mean motion
3.76575 °/min
Orbital period
95.6 mins
BSTAR
0.00011864
Loading maneuver chart data...
Computing Atmospheric mass density...

Documentation

Showing up to 5 results
|